x

Caribbean Valley - 76 Nm Ssw Of Plymouth, Montserrat (42060) Wave Buoy

8:50pm - Fri 25th Jul 2014 All times are AST. -4 hours from GMT.

  • Sig Wave height 5.9ft
  • Swell Direction
  • Peak Period 6s
  • Average Period 5s
  • Wind
    22mph, 27mph gusts
  • Sea Temp 83°f
  • Air Temp 83°f
  • Sea Pressure 1015.5mb
  • Caribbean Valley - 76 Nm Ssw Of Plymouth, Montserrat
  • Caribbean Valley - 76 Nm Ssw Of Plymouth, Montserrat

More Historic Weather Station data

Upgrade to MSW Pro to gain access to the past 30 days of data for over 8000 Wavebouys and Weather Stations around the globe.

Join Pro

Comparision Forecast

View Surf forecast
   
Fri 07/25 8:50pm 6ft 6s 5s 22 27 mph 1015.5mb 83f 83f
7:50pm 5.5ft 6s 5s 22 29 mph 1015.1mb 83f 83f
6:50pm 5.5ft 6s 5s 22 27 mph 1014.4mb 83f 83f
5:50pm 5ft 7s 5s 18 22 mph 1013.7mb 83f 83f
4:50pm 5ft 6s 5s 18 22 mph 1013.8mb 83f 83f
3:50pm 5.5ft 6s 5s 20 22 mph 1014mb 83f 83f
2:50pm 6ft 6s 5s 22 27 mph 1014.3mb 83f 83f
1:50pm 5.5ft 6s 5s 22 27 mph 1015.3mb 83f 83f
12:50pm 5ft 6s 5s 22 29 mph 1015.9mb 83f 83f
11:50am 4.5ft 6s 5s 20 25 mph 1016.6mb 83f 83f
10:50am 5ft 6s 5s 20 25 mph 1016.8mb 83f 83f
9:50am 6ft 6s 5s 20 25 mph 1016.9mb 83f 83f
8:50am 5.5ft 6s 5s 22 27 mph 1016.7mb 83f 83f
7:50am 5.5ft 6s 5s 22 27 mph 1016.4mb 83f 82f
6:50am 5.5ft 6s 5s 22 27 mph 1015.6mb 83f 82f
5:50am 5ft 6s 5s 22 27 mph 1015.1mb 83f 82f
4:50am 5ft 6s 5s 22 25 mph 1014.7mb 83f 83f
3:50am 5ft 6s 5s 22 25 mph 1014.6mb 83f 82f
2:50am 5ft 5s 5s 20 27 mph 1014.6mb 83f 83f
1:50am 5.5ft 6s 5s 22 27 mph 1015mb 83f 83f
12:50am 5ft 6s 5s 20 25 mph 1015.8mb 83f 82f
Thu 07/24 11:50pm 5ft 6s 5s 22 27 mph 1016.4mb 83f 83f
10:50pm 5ft 6s 5s 20 27 mph 1016.9mb 83f 82f
9:50pm 5ft 9s 5s 22 27 mph 1016.6mb 83f 82f
8:50pm 5ft 6s 5s 20 25 mph 1016.3mb 83f 83f
7:50pm 5.5ft 6s 5s 20 25 mph 1015.8mb 83f 82f
6:50pm 5ft 6s 5s 16 20 mph 1015.4mb 83f 82f
5:50pm 5ft 6s 5s 20 22 mph 1014.8mb 83f 82f
4:50pm 6ft 6s 5s 18 22 mph 1014.6mb 83f 82f
3:50pm 6ft 6s 5s 22 25 mph 1014.3mb 83f 83f
2:50pm 7ft 8s 6s 20 25 mph 1014.5mb 83f 83f
1:50pm 7ft 7s 6s 20 25 mph 1015mb 83f 83f
12:50pm 7ft 7s 5s 20 25 mph 1015.6mb 83f 82f
11:50am 7ft 7s 5s 25 29 mph 1016.1mb 83f 82f
10:50am 7ft 7s 5s 25 29 mph 1016.1mb 83f 83f
9:50am 6ft 7s 5s 27 31 mph 1015.7mb 83f 82f
8:50am 6ft 6s 5s 18 25 mph 1015.9mb 83f 80f
7:50am 6.5ft 6s 5s 25 29 mph 1015.3mb 83f 81f
6:50am 6ft 6s 5s 22 25 mph 1014.7mb 83f 83f
5:50am 6.5ft 6s 5s 22 27 mph 1014mb 83f 82f
4:50am 6ft 8s 5s 22 27 mph 1013.6mb 83f 82f
3:50am 6ft 7s 5s 22 25 mph 1013.7mb 83f 82f
2:50am 6ft 7s 5s 20 25 mph 1014.3mb 83f 82f
1:50am 6ft 7s 5s 22 27 mph 1014.9mb 83f 82f
12:50am 6ft 6s 5s 25 27 mph 1015.2mb 83f 82f
Wed 07/23 11:50pm 6ft 6s 5s 22 29 mph 1016mb 83f 83f
10:50pm 5.5ft 6s 5s 25 27 mph 1016.4mb 83f 83f
9:50pm 5.5ft 7s 5s 22 27 mph 1016.3mb 83f 83f
8:50pm 6ft 7s 5s 25 29 mph 1015.7mb 83f 82f
7:50pm 6ft 7s 5s 25 29 mph 1015.1mb 83f 83f
6:50pm 7ft 6s 5s 25 29 mph 1014.7mb 83f 83f
5:50pm 6ft 6s 5s 22 27 mph 1014.6mb 83f 83f
4:50pm 5ft 6s 5s 27 29 mph 1014.6mb 83f 83f
3:50pm 5.5ft 6s 5s 25 29 mph 1014.6mb 83f 83f
2:50pm 5ft 6s 5s 22 27 mph 1015.1mb 83f 83f
1:50pm 5ft 6s 5s 22 27 mph 1015.7mb 83f 83f
12:50pm 5ft 6s 5s 22 27 mph 1016.6mb 83f 82f
11:50am 5ft 6s 5s 20 25 mph 1017.1mb 83f 83f
10:50am 5ft 6s 5s 20 25 mph 1017.5mb 83f 83f
9:50am 4ft 6s 5s 20 22 mph 1017.7mb 83f 83f
8:50am 4.5ft 6s 5s 18 20 mph 1017.6mb 83f 83f
7:50am 4.5ft 7s 5s 20 25 mph 1017.2mb 83f 83f
6:50am 4.5ft 6s 5s 20 22 mph 1016.7mb 83f 82f
5:50am 5ft 6s 5s 20 22 mph 1016mb 83f 82f
4:50am 5ft 6s 5s 18 22 mph 1015.5mb 83f 82f
3:50am 5ft 6s 5s 20 22 mph 1015.4mb 83f 82f
2:50am 5ft 6s 5s 20 22 mph 1015.4mb 83f 82f
1:50am 5ft 5s 5s 20 25 mph 1015.5mb 83f 82f
12:50am 4.5ft 6s 5s 20 22 mph 1016.5mb 83f 83f
Tue 07/22 11:50pm 5ft 6s 5s 20 25 mph 1017mb 83f 82f
10:50pm 5ft 6s 5s 20 25 mph 1017.3mb 83f 82f
9:50pm 5ft 6s 5s 20 25 mph 1017.3mb 83f 83f
8:50pm 4.5ft 6s 5s 20 27 mph 1016.8mb 83f 83f
7:50pm 4.5ft 6s 5s 20 22 mph 1016.6mb 83f 83f
6:50pm 4ft 6s 5s 18 20 mph 1016.3mb 84f 83f
5:50pm 4.5ft 6s 5s 16 18 mph 1015.9mb 84f 83f
4:50pm 4ft 6s 5s 16 18 mph 1015.6mb 84f 83f
3:50pm 4ft 6s 5s 16 18 mph 1015.7mb 84f 83f
2:50pm 4ft 6s 5s 13 16 mph 1016mb 84f 83f
1:50pm 4ft 6s 5s 11 13 mph 1016.5mb 84f 83f
12:50pm 4ft 6s 5s 13 18 mph 1017.1mb 83f 83f
11:50am 4ft 6s 5s 13 16 mph 1017.3mb 83f 83f
10:50am 4.5ft 5s 5s 11 16 mph 1017.5mb 83f 82f
9:50am 4ft 6s 5s 13 16 mph 1017.6mb 83f 82f
8:50am 4ft 6s 5s 11 16 mph 1017.2mb 83f 82f
7:50am 4.5ft 6s 5s 16 20 mph 1017mb 83f 82f
6:50am 4.5ft 6s 5s 16 18 mph 1016.8mb 83f 82f
5:50am 4.5ft 6s 5s 18 22 mph 1016.1mb 83f 82f
4:50am 4.5ft 6s 5s 16 20 mph 1015.7mb 83f 81f
3:50am 5ft 6s 5s 16 20 mph 1015.6mb 83f 81f
2:50am 4.5ft 6s 5s 18 20 mph 1015.5mb 83f 82f
1:50am 4.5ft 6s 5s 20 25 mph 1015.5mb 83f 82f